Weather History for Terrell, TX

Change the Weather History Date:

Wednesday, June 26, 2013

  Actual Average (KDFW) Record (KDFW)
Temperature  
Mean Temperature 88 °F 83 °F  
Max Temperature 98 °F 93 °F 113 °F (1980)
Min Temperature 77 °F 73 °F 60 °F (1928)
Degree Days  
Heating Degree Days 0 0  
Month to date heating degree days 0  
Since 1 June heating degree days 0  
Since 1 July heating degree days 2284  
Cooling Degree Days 22 18  
Month to date cooling degree days 417  
Year to date cooling degree days 839  
Since 1 June cooling degree days 417  
Growing Degree Days 38 (Base 50)    
Moisture  
Dew Point 68 °F    
Average Humidity 56    
Maximum Humidity 88    
Minimum Humidity 36    
Precipitation  
Precipitation 0.00 in 0.11 in 2.54 in (2007)
Month to date precipitation 3.39  
Year to date precipitation 19.64  
Sea Level Pressure  
Sea Level Pressure 29.90 in    
Wind  
Wind Speed 11 mph (South)    
Max Wind Speed 17 mph    
Max Gust Speed 37 mph    
Visibility 10 miles    
Events      
T = Trace of Precipitation, MM = Missing Value Source: NWS Daily Summary

Daily Weather History Graph

Daily Weather History Graph

Search for Another Location

Airport:

Trip Planner

Search our weather history database for the weather conditions in past years. The results will help you decide how hot, cold, wet, or windy it might be!

Date:

Astronomy

Jun. 26, 2013 Rise Set
Actual Time 6:19 AM CDT 8:36 PM CDT
Civil Twilight 5:50 AM CDT 9:05 PM CDT
Nautical Twilight 5:15 AM CDT 9:40 PM CDT
Astronomical Twilight 4:37 AM CDT 10:18 PM CDT
Moon 11:15 PM CDT (6/26) 9:59 AM CDT (6/26)
Length of Visible Light 15h 14m
Length of Day
14h 17m
Waning Gibbous, 85% of the Moon is Illuminated
Jun 26
Waning Gibbous
Jun 29
Last Quarter
Jul 8
New
Jul 15
First Quarter
Jul 22
Full

Hourly Weather History & Observations

Time (CDT) Temp. Heat Index Dew Point Humidity Pressure Visibility Wind Dir Wind Speed Gust Speed Precip Events Conditions
12:53 AM 84.0 °F 84.9 °F 63.0 °F 49% 29.88 in 10.0 mi South 11.5 mph - N/A   Clear
1:53 AM 82.9 °F 84.0 °F 63.0 °F 51% 29.87 in 10.0 mi South 12.7 mph - N/A   Clear
2:53 AM 81.0 °F 83.0 °F 66.0 °F 60% 29.88 in 10.0 mi South 10.4 mph 21.9 mph N/A   Clear
3:53 AM 79.0 °F - 68.0 °F 69% 29.87 in 10.0 mi South 11.5 mph - N/A   Clear
4:53 AM 78.1 °F - 70.0 °F 76% 29.88 in 10.0 mi South 10.4 mph - N/A   Clear
5:53 AM 77.0 °F - 72.0 °F 84% 29.90 in 10.0 mi South 11.5 mph - N/A   Clear
6:53 AM 77.0 °F - 73.0 °F 88% 29.92 in 10.0 mi South 11.5 mph - N/A   Mostly Cloudy
7:53 AM 78.1 °F - 73.0 °F 84% 29.94 in 10.0 mi South 13.8 mph 24.2 mph N/A   Overcast
8:53 AM 81.0 °F 85.2 °F 72.0 °F 74% 29.96 in 10.0 mi SSW 12.7 mph 23.0 mph N/A   Scattered Clouds
9:53 AM 84.0 °F 89.0 °F 71.1 °F 65% 29.97 in 10.0 mi South 13.8 mph 25.3 mph N/A   Partly Cloudy
10:53 AM 86.0 °F 91.5 °F 71.1 °F 61% 29.96 in 10.0 mi SSW 16.1 mph 25.3 mph N/A   Partly Cloudy
11:53 AM 89.1 °F 94.1 °F 70.0 °F 53% 29.96 in 10.0 mi South 17.3 mph 29.9 mph N/A   Clear
12:53 PM 91.0 °F 96.6 °F 70.0 °F 50% 29.95 in 10.0 mi SSW 11.5 mph 19.6 mph N/A   Clear
1:53 PM 93.0 °F 97.4 °F 68.0 °F 44% 29.92 in 10.0 mi South 11.5 mph 20.7 mph N/A   Clear
2:53 PM 96.1 °F 101.6 °F 69.1 °F 41% 29.89 in 10.0 mi South 16.1 mph 32.2 mph N/A   Clear
3:53 PM 97.0 °F 102.2 °F 68.0 °F 39% 29.88 in 10.0 mi South 9.2 mph 29.9 mph N/A   Clear
4:53 PM 98.1 °F 102.4 °F 66.9 °F 36% 29.87 in 10.0 mi SSW 8.1 mph - N/A   Clear
5:53 PM 98.1 °F 102.4 °F 66.9 °F 36% 29.86 in 10.0 mi South 13.8 mph 36.8 mph N/A   Clear
6:53 PM 97.0 °F 101.0 °F 66.9 °F 37% 29.85 in 10.0 mi South 10.4 mph - N/A   Clear
7:53 PM 93.9 °F 97.5 °F 66.9 °F 41% 29.85 in 10.0 mi South 5.8 mph - N/A   Clear
8:53 PM 90.0 °F 92.8 °F 66.9 °F 46% 29.85 in 10.0 mi South 3.5 mph - N/A   Clear
9:53 PM 87.1 °F 89.9 °F 66.9 °F 51% 29.87 in 10.0 mi SE 5.8 mph - N/A   Clear
10:53 PM 84.9 °F 87.1 °F 66.0 °F 53% 29.89 in 10.0 mi SSE 4.6 mph - N/A   Clear
11:53 PM 82.9 °F 85.4 °F 66.9 °F 58% 29.91 in 10.0 mi SSE 3.5 mph - N/A   Clear